BEIDOU 7

Last updated on Jan. 18, 2020, 4:38 a.m. UTC

1 37256U 10068A   20017.68314912 -.00000230  00000-0  10000-3 0  9992
2 37256  51.7362 300.1355 0070462 210.6888 328.5046  1.00253524 33318
UTC
Height (km)
Latitude
Longitude
Inclination
Orbital Period
UTC large
Height (km)
Speed (km/s)
/
Latitude / Longitude
Inclination (degrees)
Orbital Period (minutes)
Azimuth
Elevation
Range (km)
Doppler Factor
iOS Compass Heading
iOS Angle

Next 30 passes for location: Hong Kong

Rise time Rise Azimuth (degrees) Set time Set Azimuth (degrees) Duration Max altitude (degrees)

No matching passes for this satellites